Home > Weather > Tsingtao > Past weeks

Flag for China Past Weather in Tsingtao, Shandong, China — Yesterday and Last 2 Weeks

Now
64 °F

Clear.


Feels Like: 64 °F
Forecast: 63 / 79 °F
Wind: 3 mph from South

Location: Qingdao Airport

Current Time: May 29, 2016 at 11:32:46 PM

Latest Report: May 29, 2016 at 11:00 PM


Visibility: 10 mi

Pressure: 29.77 "Hg

Humidity: 78%

Dew Point: 57 °F

Location of TsingtaoLocation

Past Weather in Tsingtao — Graph

°F

Tsingtao Temperature Yesterday

Maximum temperature yesterday: 73 °F (at 10:00 AM)
Minimum temperature yesterday: 64 °F (at 12:00 AM)
Average temperature yesterday: 67 °F

High & Low Weather Summary for the Past Weeks

 TemperatureHumidityPressure
High84 °F (May 25, 12:00 PM)100% (May 15, 12:00 AM)30.09 "Hg (May 15, 12:00 AM)
Low50 °F (May 16, 2:00 AM)15% (May 18, 3:00 PM)29.65 "Hg (May 24, 4:00 PM)
Average68 °F56%29.89 "Hg
* Reported May 14 10:00 PM — May 29 10:00 PM, Tsingtao, Weather by CustomWeather, © 2016

Note: Actual official high and low records may vary slightly from our data, if they occured in-between our weather recording intervals... More about our weather records

Advertising

Tsingtao Weather History for the Previous 24 Hours

Scroll right to see more
 ConditionsComfort  
Time TempWeatherWind HumidityBarometerVisibility
10:00 PM
Sun, May 29
63 °FClear.6 mph83%29.77 "Hg10 mi
9:00 PM64 °FClear.6 mph83%29.77 "Hg4 mi
8:00 PM64 °FClear.8 mph88%29.74 "Hg4 mi
7:00 PM68 °FSunny.6 mph78%29.74 "Hg10 mi
6:00 PM72 °FSunny.8 mph69%29.74 "Hg10 mi
5:00 PM73 °FSunny.10 mph69%29.71 "Hg10 mi
4:00 PM77 °FPassing clouds.6 mph61%29.71 "HgN/A
3:00 PM75 °FPassing clouds.6 mph65%29.71 "HgN/A
2:00 PM75 °FPassing clouds.6 mph65%29.74 "HgN/A
1:00 PM72 °FPartly sunny.6 mph78%29.74 "HgN/A
12:00 PM70 °FPartly sunny.8 mph78%29.74 "HgN/A
11:00 AM70 °FPartly sunny.6 mph78%29.77 "Hg4 mi
10:00 AM70 °FFog.3 mph78%29.77 "Hg3 mi
9:00 AM66 °FFog.3 mph94%29.77 "Hg2 mi
8:00 AM66 °FFog.6 mph94%29.77 "Hg2 mi
7:00 AM64 °FFog.3 mph94%29.77 "Hg1 mi
6:00 AM63 °FFog.No wind100%29.74 "Hg1 mi
5:00 AM63 °FFog.No wind100%29.71 "Hg2 mi
4:00 AM63 °FFog.1 mph100%29.71 "Hg2 mi
3:00 AM63 °FLight rain. Fog.1 mph100%29.71 "Hg2 mi
2:00 AM63 °FFog.1 mph100%29.71 "Hg2 mi
1:00 AM63 °FFog.1 mph94%29.71 "Hg2 mi
12:00 AM64 °FFog.1 mph88%29.74 "Hg3 mi
11:00 PM
Sat, May 28
64 °FFog.3 mph88%29.74 "Hg3 mi
Weather by CustomWeather, © 2016

See weather overviewHow to use our weather pages